TimeCST,TemperatureF,Dew PointF,Humidity,Sea Level PressureIn,VisibilityMPH,Wind Direction,Wind SpeedMPH,Gust SpeedMPH,PrecipitationIn,Events,Conditions,WindDirDegrees,DateUTC
12:53 AM,24.1,18.0,77,30.31,10.0,East,5.8,-,N/A,,Clear,100,2013-03-07 06:53:00
1:53 AM,23.0,17.1,78,30.32,10.0,East,5.8,-,N/A,,Clear,90,2013-03-07 07:53:00
2:53 AM,23.0,17.1,78,30.31,10.0,East,5.8,-,N/A,,Clear,100,2013-03-07 08:53:00
3:53 AM,24.1,18.0,77,30.29,10.0,ESE,8.1,-,N/A,,Clear,110,2013-03-07 09:53:00
4:53 AM,24.1,18.0,77,30.28,10.0,ESE,9.2,-,N/A,,Clear,110,2013-03-07 10:53:00
5:53 AM,23.0,18.0,81,30.28,10.0,ESE,9.2,-,N/A,,Clear,110,2013-03-07 11:53:00
6:53 AM,24.1,18.0,77,30.28,10.0,ESE,8.1,-,N/A,,Clear,120,2013-03-07 12:53:00
7:53 AM,27.0,19.9,75,30.29,10.0,ESE,9.2,-,N/A,,Clear,110,2013-03-07 13:53:00
8:53 AM,30.0,21.9,72,30.30,3.0,ESE,8.1,-,N/A,,Haze,120,2013-03-07 14:53:00
9:53 AM,33.1,24.1,70,30.29,10.0,ESE,11.5,-,N/A,,Clear,120,2013-03-07 15:53:00
10:53 AM,36.0,25.0,64,30.28,10.0,ESE,11.5,-,N/A,,Clear,120,2013-03-07 16:53:00
11:53 AM,37.9,26.1,62,30.27,10.0,ESE,10.4,-,N/A,,Clear,110,2013-03-07 17:53:00
12:53 PM,39.9,28.0,63,30.24,10.0,ESE,11.5,-,N/A,,Clear,110,2013-03-07 18:53:00
1:53 PM,42.1,28.9,60,30.20,10.0,ESE,10.4,-,N/A,,Clear,120,2013-03-07 19:53:00
2:53 PM,44.1,30.0,58,30.19,10.0,ESE,10.4,-,N/A,,Clear,110,2013-03-07 20:53:00
3:53 PM,45.0,30.0,56,30.16,10.0,East,8.1,-,N/A,,Clear,90,2013-03-07 21:53:00
4:53 PM,44.1,28.9,55,30.15,10.0,East,6.9,-,N/A,,Clear,100,2013-03-07 22:53:00
5:53 PM,42.1,28.9,60,30.15,10.0,East,9.2,-,N/A,,Clear,80,2013-03-07 23:53:00
6:53 PM,41.0,28.0,60,30.17,10.0,ENE,12.7,-,N/A,,Clear,70,2013-03-08 00:53:00
7:53 PM,39.0,28.0,65,30.18,10.0,ENE,11.5,-,N/A,,Clear,70,2013-03-08 01:53:00
8:53 PM,37.9,28.0,68,30.19,10.0,East,10.4,-,N/A,,Clear,80,2013-03-08 02:53:00
9:53 PM,37.0,28.0,70,30.19,10.0,East,9.2,-,N/A,,Clear,80,2013-03-08 03:53:00
10:53 PM,37.9,27.0,65,30.20,10.0,East,8.1,-,N/A,,Clear,90,2013-03-08 04:53:00
11:53 PM,37.0,27.0,67,30.21,10.0,East,8.1,-,N/A,,Clear,80,2013-03-08 05:53:00